PIA758 EGLL-OPLA

Flight info

Callsign PIA758
Flight time N/A
Altitude 39000
Route EGLL/09R N0481F370 BPK6J BPK Q295 BRAIN M197 REDFA L620 SUVOX Z718 OSNAD L980 SAS L986 EMBOX DCT GOVEN DCT SOTET/K0893F370 L32 GRD L979 ASKIL L736 NEBSU/K0911F390 L736 LODKU M56 GERLI M161 ODIVA Z407 LAPZE/K0896F410 T186 AMDAR/N0485F410 M875 TAPIS L509 LAJAK/N0445F270 G796 HANGU J165 NONIB/N0485F410 L509 INDEK T400 AKBER AKBE1B OPLA/36R
Aircraft B772/H-V/N

Departure

Time N/A
Airport London Heathrow Airport (EGLL)

Arrival

Time 2026-04-27 18:05
Airport Allama Iqbal International Airport (OPLA)
Time Latitude Longitude Altitude Speed Heading
2026-04-27 17:15 34.88618 68.91122 41046 ft 504 kts 158°
2026-04-27 17:15 34.82439 68.95130 41032 ft 504 kts 158°
2026-04-27 17:16 34.76241 68.99147 41025 ft 503 kts 158°
2026-04-27 17:16 34.70075 69.03138 41003 ft 501 kts 158°
2026-04-27 17:17 34.63940 69.07103 40994 ft 497 kts 158°
2026-04-27 17:17 34.57847 69.11040 40992 ft 495 kts 158°
2026-04-27 17:18 34.52201 69.15869 40976 ft 506 kts 138°
2026-04-27 17:18 34.49922 69.19151 40986 ft 512 kts 128°
2026-04-27 17:18 34.46499 69.26772 40959 ft 517 kts 119°
2026-04-27 17:19 34.43333 69.34558 40966 ft 519 kts 120°
2026-04-27 17:19 34.40054 69.42413 40966 ft 520 kts 120°
2026-04-27 17:20 34.36745 69.50162 40970 ft 522 kts 121°
2026-04-27 17:20 34.33391 69.57960 40971 ft 522 kts 121°
2026-04-27 17:21 34.30039 69.65774 40962 ft 524 kts 121°
2026-04-27 17:21 34.26673 69.73598 40938 ft 524 kts 121°
2026-04-27 17:22 34.23309 69.81409 40923 ft 524 kts 121°
2026-04-27 17:22 34.19932 69.89216 40928 ft 524 kts 121°
2026-04-27 17:23 34.16553 69.97013 40923 ft 524 kts 121°
2026-04-27 17:23 34.13151 70.04820 40920 ft 525 kts 121°
2026-04-27 17:24 34.09743 70.12615 40885 ft 525 kts 120°
2026-04-27 17:24 34.06326 70.20394 40892 ft 525 kts 121°
2026-04-27 17:25 34.02920 70.28172 40895 ft 524 kts 121°
2026-04-27 17:25 33.99505 70.35945 40884 ft 524 kts 121°
2026-04-27 17:26 33.96086 70.43693 40887 ft 523 kts 121°
2026-04-27 17:26 33.92106 70.50876 40895 ft 517 kts 133°
2026-04-27 17:27 33.87197 70.57123 40882 ft 511 kts 142°
2026-04-27 17:27 33.81987 70.62941 40866 ft 511 kts 142°
2026-04-27 17:28 33.76786 70.68767 40873 ft 511 kts 141°
2026-04-27 17:29 33.69018 70.77570 40830 ft 512 kts 141°
2026-04-27 17:29 33.63836 70.83435 40833 ft 512 kts 141°
2026-04-27 17:30 33.58657 70.89282 40825 ft 511 kts 141°
2026-04-27 17:30 33.51123 70.98322 40802 ft 518 kts 126°
2026-04-27 17:31 33.49555 71.02226 40776 ft 524 kts 109°
2026-04-27 17:31 33.48846 71.06502 40787 ft 525 kts 92°
2026-04-27 17:31 33.49401 71.15192 40798 ft 524 kts 83°
2026-04-27 17:32 33.50385 71.28309 40776 ft 529 kts 85°
2026-04-27 17:33 33.50919 71.37058 40769 ft 531 kts 85°
2026-04-27 17:33 33.51458 71.45896 40772 ft 532 kts 85°
2026-04-27 17:34 33.51996 71.54739 40761 ft 532 kts 85°
2026-04-27 17:34 33.52521 71.63584 40753 ft 532 kts 85°
2026-04-27 17:35 33.53040 71.72422 40735 ft 531 kts 85°
2026-04-27 17:35 33.53342 71.81250 40733 ft 529 kts 96°
2026-04-27 17:35 33.52714 71.85566 40739 ft 526 kts 107°
2026-04-27 17:36 33.51518 71.89704 40745 ft 523 kts 116°
2026-04-27 17:36 33.47820 71.97097 40741 ft 517 kts 127°
2026-04-27 17:37 33.43818 72.04268 40736 ft 519 kts 127°
2026-04-27 17:37 33.39843 72.11499 40717 ft 520 kts 126°
2026-04-27 17:38 33.35903 72.18772 40738 ft 521 kts 126°
2026-04-27 17:38 33.31983 72.26024 40724 ft 522 kts 126°
2026-04-27 17:39 33.28033 72.33312 40723 ft 522 kts 126°
2026-04-27 17:39 33.24074 72.40594 40725 ft 523 kts 126°
2026-04-27 17:40 33.20109 72.47868 40722 ft 522 kts 126°
2026-04-27 17:40 33.16142 72.55133 40738 ft 522 kts 126°
2026-04-27 17:41 33.12847 72.61156 40739 ft 522 kts 126°
2026-04-27 17:41 33.08876 72.68402 40734 ft 521 kts 126°
2026-04-27 17:42 33.04906 72.75634 40733 ft 521 kts 126°
2026-04-27 17:42 33.00930 72.82861 40725 ft 521 kts 126°
2026-04-27 17:43 32.96953 72.90076 40732 ft 520 kts 126°
2026-04-27 17:43 32.92973 72.97282 40727 ft 520 kts 126°
2026-04-27 17:44 32.89024 73.04417 40727 ft 519 kts 126°
2026-04-27 17:44 32.85047 73.11591 40735 ft 519 kts 126°
2026-04-27 17:45 32.81065 73.18761 40715 ft 520 kts 126°
2026-04-27 17:45 32.79057 73.22299 40522 ft 510 kts 129°
2026-04-27 17:45 32.76845 73.25560 39901 ft 506 kts 136°
2026-04-27 17:45 32.74400 73.28560 39112 ft 506 kts 141°
2026-04-27 17:46 32.71740 73.31291 38298 ft 505 kts 147°
2026-04-27 17:46 32.68943 73.33822 37375 ft 507 kts 147°
2026-04-27 17:46 32.66125 73.36349 36436 ft 508 kts 147°
2026-04-27 17:46 32.63299 73.38885 35527 ft 510 kts 147°
2026-04-27 17:47 32.60468 73.41438 34641 ft 511 kts 147°
2026-04-27 17:47 32.58602 73.43128 34059 ft 511 kts 146°
2026-04-27 17:47 32.54816 73.46567 32654 ft 514 kts 146°
2026-04-27 17:47 32.52012 73.49120 31596 ft 515 kts 145°
2026-04-27 17:48 32.49167 73.51710 30541 ft 517 kts 145°
2026-04-27 17:48 32.46320 73.54300 29461 ft 517 kts 144°
2026-04-27 17:48 32.43471 73.56891 28573 ft 511 kts 144°
2026-04-27 17:48 32.40681 73.59428 27891 ft 502 kts 144°
2026-04-27 17:49 32.37928 73.61928 27223 ft 494 kts 144°
2026-04-27 17:49 32.35221 73.64382 26536 ft 487 kts 144°
2026-04-27 17:49 32.32544 73.66805 25788 ft 482 kts 145°
2026-04-27 17:49 32.29897 73.69200 25062 ft 477 kts 145°
2026-04-27 17:50 32.27275 73.71568 24376 ft 471 kts 145°
2026-04-27 17:50 32.22129 73.76214 23041 ft 460 kts 145°
2026-04-27 17:50 32.19595 73.78499 22294 ft 455 kts 145°
2026-04-27 17:51 32.17090 73.80755 21557 ft 450 kts 145°
2026-04-27 17:51 32.14609 73.82990 20873 ft 446 kts 145°
2026-04-27 17:51 32.12155 73.85198 20206 ft 442 kts 145°
2026-04-27 17:51 32.09721 73.87386 19512 ft 439 kts 145°
2026-04-27 17:52 32.07303 73.89558 18871 ft 436 kts 144°
2026-04-27 17:52 32.04896 73.91719 18280 ft 433 kts 144°
2026-04-27 17:52 32.02511 73.93859 17710 ft 429 kts 144°
2026-04-27 17:52 32.00176 73.95955 17083 ft 426 kts 144°
2026-04-27 17:53 31.97826 73.98063 16447 ft 424 kts 145°
2026-04-27 17:53 31.95480 74.00164 15825 ft 422 kts 145°
2026-04-27 17:53 31.93146 74.02253 15234 ft 420 kts 145°
2026-04-27 17:53 31.90820 74.04334 14664 ft 419 kts 146°
2026-04-27 17:54 31.88507 74.06401 14106 ft 417 kts 146°
2026-04-27 17:54 31.86198 74.08464 13521 ft 417 kts 146°
2026-04-27 17:54 31.83829 74.10326 12714 ft 404 kts 159°
2026-04-27 17:54 31.81256 74.11407 12463 ft 384 kts 167°
2026-04-27 17:55 31.78750 74.12333 12380 ft 371 kts 167°
2026-04-27 17:55 31.76336 74.13253 12212 ft 360 kts 167°
2026-04-27 17:55 31.73960 74.14174 11654 ft 360 kts 166°
2026-04-27 17:55 31.71573 74.15110 10999 ft 365 kts 166°
2026-04-27 17:56 31.69153 74.16068 10350 ft 369 kts 165°
2026-04-27 17:56 31.66715 74.17040 9714 ft 372 kts 165°
2026-04-27 17:56 31.64256 74.18024 9033 ft 374 kts 164°
2026-04-27 17:56 31.61786 74.19015 8347 ft 376 kts 164°
2026-04-27 17:57 31.59308 74.20011 7676 ft 377 kts 163°
2026-04-27 17:57 31.56826 74.21007 6947 ft 379 kts 163°
2026-04-27 17:57 31.54419 74.21974 6186 ft 350 kts 162°
2026-04-27 17:57 31.52198 74.22867 5489 ft 325 kts 162°
2026-04-27 17:58 31.50146 74.23690 5030 ft 299 kts 162°
2026-04-27 17:58 31.48246 74.24451 4552 ft 280 kts 162°
2026-04-27 17:58 31.46420 74.25180 4215 ft 275 kts 162°
2026-04-27 17:58 31.44644 74.25887 4034 ft 270 kts 162°
2026-04-27 17:59 31.42902 74.26583 3986 ft 259 kts 162°
2026-04-27 17:59 31.41234 74.27250 3970 ft 249 kts 162°
2026-04-27 17:59 31.39613 74.27897 3984 ft 246 kts 162°
2026-04-27 17:59 31.37983 74.28546 3980 ft 247 kts 162°
2026-04-27 18:00 31.36353 74.29197 3986 ft 247 kts 162°
2026-04-27 18:00 31.34858 74.30103 3976 ft 242 kts 136°
2026-04-27 18:00 31.33996 74.31764 3924 ft 247 kts 103°
2026-04-27 18:00 31.33944 74.33779 3726 ft 246 kts 81°
2026-04-27 18:01 31.34230 74.35755 3549 ft 246 kts 80°
2026-04-27 18:01 31.34532 74.37696 3348 ft 237 kts 72°
2026-04-27 18:01 31.35337 74.39296 3169 ft 225 kts 39°
2026-04-27 18:01 31.36690 74.40023 3054 ft 207 kts
2026-04-27 18:02 31.38078 74.40182 2888 ft 201 kts
2026-04-27 18:02 31.39472 74.40235 2718 ft 194 kts 359°
2026-04-27 18:02 31.40767 74.40256 2523 ft 185 kts 359°
2026-04-27 18:02 31.42025 74.40277 2299 ft 177 kts 359°
2026-04-27 18:03 31.43211 74.40296 2078 ft 163 kts 359°
2026-04-27 18:03 31.44293 74.40318 1868 ft 148 kts 360°
2026-04-27 18:03 31.45292 74.40335 1706 ft 139 kts 360°
2026-04-27 18:03 31.46276 74.40352 1535 ft 144 kts
2026-04-27 18:04 31.47287 74.40372 1371 ft 146 kts
2026-04-27 18:04 31.48312 74.40389 1201 ft 148 kts
2026-04-27 18:04 31.49341 74.40407 1014 ft 148 kts
2026-04-27 18:04 31.50368 74.40423 829 ft 147 kts
2026-04-27 18:05 31.51372 74.40446 733 ft 133 kts 355°
2026-04-27 18:05 31.52171 74.40457 730 ft 94 kts
2026-04-27 18:05 31.52625 74.40465 728 ft 42 kts
2026-04-27 18:05 31.52759 74.40468 729 ft 4 kts
2026-04-27 18:06 31.52784 74.40486 729 ft 6 kts 39°
2026-04-27 18:06 31.52804 74.40550 728 ft 11 kts 90°
2026-04-27 18:06 31.52799 74.40637 729 ft 10 kts 93°
2026-04-27 18:06 31.52755 74.40682 731 ft 9 kts 178°
2026-04-27 18:07 31.52668 74.40676 730 ft 15 kts 181°
2026-04-27 18:07 31.52584 74.40675 730 ft 10 kts 181°
2026-04-27 18:07 31.52523 74.40674 730 ft 8 kts 181°
2026-04-27 18:07 31.52459 74.40673 729 ft 0 kts 181°
2026-04-27 18:08 31.52433 74.40681 729 ft 7 kts 152°
2026-04-27 18:08 31.52406 74.40753 730 ft 13 kts 96°
2026-04-27 18:08 31.52388 74.40828 731 ft 9 kts 140°
2026-04-27 18:08 31.52335 74.40841 730 ft 7 kts 181°
2026-04-27 18:09 31.52267 74.40840 730 ft 12 kts 181°
2026-04-27 18:09 31.52189 74.40839 731 ft 11 kts 181°
2026-04-27 18:09 31.52121 74.40838 729 ft 2 kts 182°
2026-04-27 18:09 31.52064 74.40840 729 ft 6 kts 163°
2026-04-27 18:10 31.52046 74.40862 727 ft 2 kts 114°
2026-04-27 18:10 31.52047 74.40872 729 ft 0 kts 84°
2026-04-27 18:10 31.52044 74.40897 727 ft 8 kts 99°
2026-04-27 18:10 31.52042 74.40932 727 ft 0 kts 90°